Tracking 27112 objects as of 26-Mar-2023
HD Live streaming from Space Station
objects crossing your sky now

COSMOS 1275 DEB

Track COSMOS 1275 DEB now!
10-day predictions


NORAD ID: 15768
Int'l Code: 1981-053KG
Perigee: 836.0 km
Apogee: 914.7 km
Inclination: 83.1 °
Period: 102.3 minutes
Semi major axis: 7246 km
RCS: 0.0155 m2 (small)
Launch date: June 4, 1981
Source: Commonwealth of Independent States (former USSR) (CIS)
Launch site: PLESETSK MISSILE AND SPACE COMPLEX (PKMTR)

Note: This is SATELLITE DEBRIS
Your satellite tracking list
Your tracking list is empty




NASA's NSSDC Master Catalog

Two Line Element Set (TLE):
1 15768U 81053KD  23085.32839848  .00005292  00000-0  30947-2 0  9990
2 15768  83.0710  37.4925 0054329 237.4528 275.4547 14.07428078927397
Source of the keplerian elements: AFSPC